TimeCDT,TemperatureF,Dew PointF,Humidity,Sea Level PressureIn,VisibilityMPH,Wind Direction,Wind SpeedMPH,Gust SpeedMPH,PrecipitationIn,Events,Conditions,WindDirDegrees,DateUTC
12:15 AM,27.5,14.9,59,30.03,10.0,NNW,4.6,-,N/A,,Clear,330,2013-03-19 05:15:00
12:35 AM,28.0,14.7,57,30.03,10.0,Calm,Calm,-,N/A,,Clear,0,2013-03-19 05:35:00
12:55 AM,26.4,17.6,69,30.03,10.0,Calm,Calm,-,N/A,,Clear,0,2013-03-19 05:55:00
1:15 AM,25.7,18.3,74,30.04,10.0,Calm,Calm,-,N/A,,Clear,0,2013-03-19 06:15:00
1:35 AM,25.5,18.3,74,30.04,10.0,Calm,Calm,-,N/A,,Clear,0,2013-03-19 06:35:00
1:55 AM,25.9,16.9,69,30.05,10.0,Calm,Calm,-,N/A,,Clear,0,2013-03-19 06:55:00
2:15 AM,25.9,16.3,67,30.05,10.0,Calm,Calm,-,N/A,,Clear,0,2013-03-19 07:15:00
2:55 AM,22.8,15.1,72,30.05,10.0,Calm,Calm,-,N/A,,Clear,0,2013-03-19 07:55:00
3:15 AM,20.8,16.5,83,30.05,10.0,Calm,Calm,-,N/A,,Clear,0,2013-03-19 08:15:00
3:35 AM,22.6,15.8,75,30.05,10.0,Calm,Calm,-,N/A,,Clear,0,2013-03-19 08:35:00
3:55 AM,21.0,15.1,78,30.03,10.0,Calm,Calm,-,N/A,,Clear,0,2013-03-19 08:55:00
4:15 AM,21.2,16.2,81,30.04,10.0,Calm,Calm,-,N/A,,Clear,0,2013-03-19 09:15:00
4:35 AM,19.8,15.4,83,30.04,10.0,Calm,Calm,-,N/A,,Clear,0,2013-03-19 09:35:00
4:55 AM,18.7,14.5,84,30.05,10.0,Calm,Calm,-,N/A,,Clear,0,2013-03-19 09:55:00
5:15 AM,18.7,14.0,82,30.04,10.0,Calm,Calm,-,N/A,,Clear,0,2013-03-19 10:15:00
5:35 AM,18.7,14.0,82,30.04,10.0,Calm,Calm,-,N/A,,Clear,0,2013-03-19 10:35:00
5:55 AM,18.1,14.5,86,30.05,10.0,Calm,Calm,-,N/A,,Clear,0,2013-03-19 10:55:00
6:15 AM,20.1,15.6,83,30.04,10.0,Calm,Calm,-,N/A,,Clear,0,2013-03-19 11:15:00
6:35 AM,19.6,15.6,85,30.05,10.0,Calm,Calm,-,N/A,,Clear,0,2013-03-19 11:35:00
6:55 AM,19.4,15.8,86,30.06,10.0,Calm,Calm,-,N/A,,Clear,0,2013-03-19 11:55:00
7:15 AM,19.9,16.3,86,30.06,10.0,Calm,Calm,-,N/A,,Clear,0,2013-03-19 12:15:00
7:35 AM,19.9,16.2,85,30.07,10.0,Calm,Calm,-,N/A,,Clear,0,2013-03-19 12:35:00
7:55 AM,19.9,16.3,86,30.07,10.0,Calm,Calm,-,N/A,,Clear,0,2013-03-19 12:55:00
8:15 AM,21.2,17.2,85,30.08,10.0,Calm,Calm,-,N/A,,Clear,0,2013-03-19 13:15:00
8:35 AM,22.5,16.9,79,30.09,10.0,Calm,Calm,-,N/A,,Clear,0,2013-03-19 13:35:00
8:55 AM,24.1,17.6,76,30.10,10.0,Calm,Calm,-,N/A,,Clear,0,2013-03-19 13:55:00
9:15 AM,26.1,18.0,71,30.10,10.0,SE,3.5,-,N/A,,Clear,130,2013-03-19 14:15:00
9:35 AM,27.3,19.8,73,30.11,10.0,Calm,Calm,-,N/A,,Clear,0,2013-03-19 14:35:00
9:55 AM,30.7,20.5,66,30.12,10.0,South,5.8,-,N/A,,Clear,180,2013-03-19 14:55:00
10:15 AM,32.4,19.8,60,30.11,10.0,South,6.9,-,N/A,,Clear,190,2013-03-19 15:15:00
10:35 AM,34.0,19.8,56,30.11,10.0,South,6.9,-,N/A,,Clear,180,2013-03-19 15:35:00
10:55 AM,36.3,20.3,52,30.11,10.0,SSW,6.9,-,N/A,,Clear,210,2013-03-19 15:55:00
11:15 AM,39.0,21.7,50,30.11,10.0,West,9.2,-,N/A,,Clear,270,2013-03-19 16:15:00
11:35 AM,43.0,23.2,46,30.10,10.0,West,6.9,-,N/A,,Clear,270,2013-03-19 16:35:00
11:55 AM,46.6,19.6,34,30.10,10.0,NW,12.7,21.9,N/A,,Clear,310,2013-03-19 16:55:00
12:15 PM,47.1,18.7,32,30.10,10.0,NW,17.3,23.0,N/A,,Clear,320,2013-03-19 17:15:00
12:35 PM,48.2,18.9,31,30.11,10.0,NW,19.6,28.8,N/A,,Clear,320,2013-03-19 17:35:00
12:55 PM,48.4,18.0,30,30.11,10.0,NNW,17.3,26.5,N/A,,Scattered Clouds,330,2013-03-19 17:55:00
1:15 PM,49.5,17.1,28,30.11,10.0,NW,17.3,25.3,N/A,,Scattered Clouds,320,2013-03-19 18:15:00
1:35 PM,49.8,16.2,26,30.11,10.0,NW,20.7,27.6,N/A,,Scattered Clouds,320,2013-03-19 18:35:00
1:55 PM,49.6,16.2,26,30.10,10.0,NW,19.6,26.5,N/A,,Mostly Cloudy,310,2013-03-19 18:55:00
2:15 PM,48.6,16.7,28,30.10,10.0,NW,20.7,25.3,N/A,,Mostly Cloudy,320,2013-03-19 19:15:00
2:35 PM,49.3,16.9,28,30.11,10.0,NW,17.3,26.5,N/A,,Mostly Cloudy,310,2013-03-19 19:35:00
2:55 PM,49.6,17.2,28,30.11,10.0,NW,15.0,28.8,N/A,,Mostly Cloudy,320,2013-03-19 19:55:00
3:15 PM,50.2,16.3,26,30.11,10.0,NNW,20.7,31.1,N/A,,Mostly Cloudy,330,2013-03-19 20:15:00
3:35 PM,49.6,15.8,26,30.11,10.0,NNW,24.2,29.9,N/A,,Scattered Clouds,330,2013-03-19 20:35:00
3:55 PM,49.5,15.8,26,30.11,10.0,NNW,15.0,27.6,N/A,,Mostly Cloudy,330,2013-03-19 20:55:00
4:15 PM,48.6,15.8,27,30.12,10.0,NNW,23.0,27.6,N/A,,Scattered Clouds,330,2013-03-19 21:15:00
4:35 PM,49.6,15.1,25,30.13,10.0,NNW,18.4,27.6,N/A,,Scattered Clouds,340,2013-03-19 21:35:00
4:55 PM,47.5,14.9,27,30.13,10.0,NNW,18.4,27.6,N/A,,Scattered Clouds,340,2013-03-19 21:55:00
5:15 PM,47.5,13.6,26,30.13,10.0,North,15.0,27.6,N/A,,Clear,350,2013-03-19 22:15:00
5:35 PM,47.7,11.1,23,30.14,10.0,NNW,17.3,26.5,N/A,,Scattered Clouds,340,2013-03-19 22:35:00
5:55 PM,47.8,11.3,23,30.15,10.0,NNW,18.4,26.5,N/A,,Clear,330,2013-03-19 22:55:00
6:15 PM,46.2,10.6,24,30.16,10.0,NNW,19.6,31.1,N/A,,Clear,330,2013-03-19 23:15:00
6:35 PM,45.5,10.8,24,30.17,10.0,NNW,20.7,27.6,N/A,,Clear,340,2013-03-19 23:35:00
6:55 PM,43.7,11.8,27,30.18,10.0,North,16.1,23.0,N/A,,Clear,350,2013-03-19 23:55:00
7:15 PM,41.9,9.9,27,30.19,10.0,North,10.4,19.6,N/A,,Clear,350,2013-03-20 00:15:00
7:35 PM,40.3,11.1,30,30.20,10.0,North,12.7,21.9,N/A,,Clear,350,2013-03-20 00:35:00
7:55 PM,38.5,12.4,34,30.21,10.0,North,15.0,19.6,N/A,,Clear,350,2013-03-20 00:55:00
8:35 PM,35.4,14.4,42,30.23,10.0,North,10.4,-,N/A,,Scattered Clouds,360,2013-03-20 01:35:00
8:55 PM,33.6,18.7,54,30.25,10.0,NNE,11.5,16.1,N/A,,Clear,20,2013-03-20 01:55:00
9:15 PM,32.2,19.4,59,30.27,10.0,NNE,10.4,-,N/A,,Clear,20,2013-03-20 02:15:00
9:35 PM,31.3,19.6,62,30.28,10.0,NNE,12.7,-,N/A,,Clear,20,2013-03-20 02:35:00
9:55 PM,28.8,19.0,67,30.30,10.0,North,9.2,-,N/A,,Clear,10,2013-03-20 02:55:00
10:15 PM,27.3,18.5,69,30.31,10.0,NNE,8.1,-,N/A,,Scattered Clouds,20,2013-03-20 03:15:00
10:35 PM,26.6,17.8,69,30.32,10.0,North,11.5,-,N/A,,Scattered Clouds,10,2013-03-20 03:35:00
10:55 PM,25.3,16.7,70,30.33,10.0,North,9.2,-,N/A,,Clear,350,2013-03-20 03:55:00
11:15 PM,24.3,16.7,73,30.33,10.0,North,11.5,16.1,N/A,,Scattered Clouds,360,2013-03-20 04:15:00
11:35 PM,23.4,15.6,72,30.34,10.0,North,11.5,19.6,N/A,,Scattered Clouds,360,2013-03-20 04:35:00
11:55 PM,22.6,15.3,73,30.34,10.0,North,11.5,17.3,N/A,,Clear,350,2013-03-20 04:55:00